Home > Weather > Ottawa > Past weeks

Flag for Canada Past Weather in Ottawa, Ontario, Canada — Yesterday and Last 2 Weeks

Now
70 °F

Passing clouds.


Feels Like: 70 °F
Forecast: 66 / 80 °F
Wind: 7 mph from East

Location: Ottawa Int'L. Ont.

Current Time: Aug 27, 2016 at 10:32:22 PM

Latest Report: Aug 27, 2016 at 9:00 PM


Visibility: 15 mi

Pressure: 30.23 "Hg

Humidity: 69%

Dew Point: 59 °F

Location of OttawaLocation

Past Weather in Ottawa — Graph

°F

Ottawa Temperature Yesterday

Maximum temperature yesterday: 82 °F (at 3:00 PM)
Minimum temperature yesterday: 68 °F (at 5:00 AM)
Average temperature yesterday: 75 °F

High & Low Weather Summary for the Past Weeks

 TemperatureHumidityPressure
High86 °F (Aug 20, 2:00 PM)100% (Aug 13, 9:00 AM)30.24 "Hg (Aug 13, 9:00 AM)
Low50 °F (Aug 23, 1:00 AM)36% (Aug 22, 4:00 PM)29.64 "Hg (Aug 21, 2:00 PM)
Average70 °F76%29.97 "Hg
* Reported Aug 12 9:00 PM — Aug 27 9:00 PM, Ottawa, Weather by CustomWeather, © 2016

Note: Actual official high and low records may vary slightly from our data, if they occured in-between our weather recording intervals... More about our weather records

Advertising

Ottawa Weather History for the Previous 24 Hours

Scroll right to see more
 ConditionsComfort  
Time TempWeatherWind HumidityBarometerVisibility
9:00 PM
Sat, Aug 27
70 °FPassing clouds.7 mph69%30.23 "Hg15 mi
8:00 PM72 °FPartly sunny.6 mph69%30.22 "Hg15 mi
7:00 PM75 °FBroken clouds.6 mph57%30.20 "Hg15 mi
6:00 PM79 °FPartly sunny.5 mph51%30.19 "Hg15 mi
5:00 PM79 °FPartly sunny.2 mph48%30.19 "Hg15 mi
4:00 PM81 °FScattered clouds.7 mph48%30.20 "Hg15 mi
3:00 PM81 °FScattered clouds.7 mph51%30.21 "Hg15 mi
2:00 PM79 °FScattered clouds.6 mph58%30.21 "Hg15 mi
1:00 PM77 °FScattered clouds.5 mph54%30.22 "Hg15 mi
12:00 PM75 °FBroken clouds.6 mph57%30.23 "Hg15 mi
11:00 AM73 °FPassing clouds.7 mph69%30.23 "Hg15 mi
10:00 AM72 °FPassing clouds.7 mph69%30.24 "Hg15 mi
9:00 AM70 °FPassing clouds.9 mph69%30.23 "Hg15 mi
8:00 AM66 °FPassing clouds.12 mph78%30.22 "Hg15 mi
7:00 AM64 °FPassing clouds.8 mph83%30.21 "Hg15 mi
6:00 AM63 °FPassing clouds.6 mph88%30.19 "Hg15 mi
5:00 AM64 °FPassing clouds.6 mph83%30.16 "Hg15 mi
4:00 AM66 °FPassing clouds.7 mph78%30.14 "Hg15 mi
3:00 AM66 °FPassing clouds.9 mph78%30.14 "Hg15 mi
2:00 AM68 °FPassing clouds.8 mph73%30.12 "Hg15 mi
1:00 AM70 °FPassing clouds.7 mph73%30.11 "Hg15 mi
12:00 AM72 °FPassing clouds.7 mph73%30.09 "Hg15 mi
11:00 PM
Fri, Aug 26
70 °FPassing clouds.2 mph78%30.07 "Hg15 mi
10:00 PM70 °FPassing clouds.2 mph78%30.06 "Hg15 mi
Weather by CustomWeather, © 2016

See weather overviewHow to use our weather pages